Tracking 35048 objects as of 19-Aug-2026
HD Live streaming from Space Station
objects crossing your sky now

SPACEBEE-7


SPACEBEE-7 is no longer on orbit


NORAD ID: 43816
Int'l Code: 2018-099BL
Launch date: December 3, 2018
Source: United States (US)
Launch site: AIR FORCE WESTERN TEST RANGE (AFWTR)
Decay date: 2026-03-08
Your satellite tracking list
Your tracking list is empty




NASA's NSSDC Master Catalog

Two Line Element Set (TLE):
1 43816U 18099BL  26066.90447833  .08616019  25186-5  14564-2 0  9997
2 43816  97.4255 153.9215 0011063 275.5926  84.4108 16.33037823398932
Source of the keplerian elements: AFSPC